Location: Ida Center
(41.8662°N, 83.5713°W)
Time: 11:21:58
(UTC+00:00)

CORIOLIS - Pass Details

Date: 17 November 2019
Orbit: 819 x 838 km, 98.7° (Epoch: 11 December)

Event Time Altitude Azimuth Distance (km) Brightness Sun altitude
Rises 23:00:14 0° 161° (SSE) 3,355 7.3 -9.2°
Reaches altitude 10° 23:02:34 10° 160° (SSE) 2,429 6.6 -9.6°
Maximum altitude 23:07:58 80° 74° (ENE) 851 4.1 -10.6°
Drops below altitude 10° 23:13:25 10° 349° (NNW) 2,457 6.6 -11.5°
Sets 23:15:47 0° 348° (NNW) 3,397 7.3 -12.0°
